Weather History for Akron Canton, OH

Change the Weather History Date:

Saturday, March 2, 2013

  Actual Average Record
Temperature  
Mean Temperature 27 °F 33 °F  
Max Temperature 29 °F 41 °F 69 °F (1991)
Min Temperature 24 °F 24 °F -3 °F (1980)
Degree Days  
Heating Degree Days 38 32  
Month to date heating degree days 75 65  
Since 1 July heating degree days 4336 4609  
Cooling Degree Days 0 0  
Month to date cooling degree days 0 0  
Year to date cooling degree days 0 0  
Moisture  
Dew Point 20 °F    
Average Humidity 75    
Maximum Humidity 81    
Minimum Humidity 69    
Precipitation  
Precipitation 0.04 in 0.08 in 0.61 in (2012)
Month to date precipitation 0.06 0.17  
Year to date precipitation 4.25 5.09  
Snow  
Snow 0.40 in 0.40 in - ()
Month to date snowfall 0.6 0.7  
Since 1 July snowfall 37.0 37.2  
Snow Depth T in    
Sea Level Pressure  
Sea Level Pressure 29.98 in    
Wind  
Wind Speed 10 mph (NNW)    
Max Wind Speed 16 mph    
Max Gust Speed 21 mph    
Visibility 4 miles    
Events Snow    
T = Trace of Precipitation, MM = Missing Value Source: NWS Daily Summary

Daily Weather History Graph

Daily Weather History Graph

Search for Another Location

Airport:

Trip Planner

Search our weather history database for the weather conditions in past years. The results will help you decide how hot, cold, wet, or windy it might be!

Date:

Astronomy

Mar. 02, 2013 Rise Set
Actual Time 6:57 AM EST 6:18 PM EST
Civil Twilight 6:30 AM EST 6:45 PM EST
Nautical Twilight 5:58 AM EST 7:17 PM EST
Astronomical Twilight 5:26 AM EST 7:49 PM EST
Moon 11:59 PM EST (3/2) 9:22 AM EST (3/2)
Length of Visible Light 12h 15m
Length of Day
11h 20m
Waning Gibbous, 74% of the Moon is Illuminated
Mar 2
Waning Gibbous
Mar 4
Last Quarter
Mar 11
New
Mar 19
First Quarter
Mar 27
Full

Hourly Weather History & Observations

Time (EST) Temp. Windchill Dew Point Humidity Pressure Visibility Wind Dir Wind Speed Gust Speed Precip Events Conditions
12:51 AM 26.1 °F 15.6 °F 21.0 °F 81% 30.00 in 5.0 mi NNW 11.5 mph - 0.00 in Snow Light Snow
1:39 AM 24.8 °F 16.1 °F 19.4 °F 80% 29.96 in 7.0 mi NNW 8.1 mph - 0.00 in Snow Light Snow
1:51 AM 25.0 °F 16.3 °F 19.9 °F 81% 30.01 in 5.0 mi North 8.1 mph - 0.00 in Snow Light Snow
2:51 AM 25.0 °F 15.5 °F 19.9 °F 81% 29.99 in 3.0 mi North 9.2 mph - 0.00 in Snow Light Snow
3:51 AM 25.0 °F 17.1 °F 19.0 °F 78% 29.99 in 3.0 mi North 6.9 mph - 0.01 in Snow Light Snow
4:51 AM 24.1 °F 16.0 °F 18.0 °F 77% 29.98 in 3.0 mi North 6.9 mph - 0.00 in Snow Light Snow
4:58 AM 24.8 °F 17.9 °F 19.4 °F 80% 29.94 in 3.0 mi North 5.8 mph - 0.00 in Snow Light Snow
5:14 AM 24.8 °F 19.1 °F 19.4 °F 80% 29.94 in 2.5 mi North 4.6 mph - 0.00 in Snow Light Snow
5:51 AM 24.1 °F 18.2 °F 19.0 °F 81% 29.99 in 3.0 mi North 4.6 mph - 0.00 in Snow Light Snow
6:51 AM 24.1 °F 17.0 °F 19.9 °F 84% 29.99 in 3.0 mi NNW 5.8 mph - 0.00 in Snow Light Snow
7:51 AM 24.1 °F 18.2 °F 19.9 °F 84% 30.00 in 2.0 mi NW 4.6 mph - 0.00 in Snow Light Snow
8:51 AM 25.0 °F 14.2 °F 19.9 °F 81% 30.00 in 2.0 mi NNW 11.5 mph - 0.00 in Snow Light Snow
9:15 AM 24.8 °F 15.3 °F 19.4 °F 80% 29.95 in 7.0 mi North 9.2 mph - 0.00 in Snow Light Snow
9:51 AM 26.1 °F 16.2 °F 19.0 °F 75% 29.99 in 6.0 mi NNW 10.4 mph - 0.00 in Snow Light Snow
10:51 AM 27.0 °F 16.7 °F 19.9 °F 75% 29.99 in 5.0 mi NNW 11.5 mph - 0.00 in Snow Light Snow
11:02 AM 26.6 °F 16.2 °F 19.4 °F 74% 29.95 in 2.5 mi NNW 11.5 mph - 0.00 in Snow Light Snow
11:51 AM 28.0 °F 18.6 °F 21.0 °F 75% 29.99 in 2.5 mi NNW 10.4 mph 18.4 mph 0.00 in Snow Light Snow
12:04 PM 26.6 °F 17.5 °F 21.2 °F 80% 29.94 in 1.5 mi North 9.2 mph - 0.00 in Snow Light Snow
12:51 PM 28.9 °F 17.7 °F 21.9 °F 75% 29.98 in 1.5 mi NNW 15.0 mph - 0.00 in Snow Light Snow
1:18 PM 26.6 °F 15.7 °F 19.4 °F 74% 29.93 in 2.0 mi NNW 12.7 mph - 0.00 in   Overcast
1:51 PM 27.0 °F 16.7 °F 19.0 °F 72% 29.98 in 2.0 mi North 11.5 mph - 0.00 in Snow Light Snow
2:51 PM 27.0 °F 16.1 °F 19.9 °F 75% 29.97 in 2.0 mi NNW 12.7 mph - 0.00 in Snow Light Snow
3:16 PM 26.6 °F 16.2 °F 19.4 °F 74% 29.93 in 4.0 mi NNW 11.5 mph - 0.00 in Snow Light Snow
3:51 PM 27.0 °F 17.3 °F 21.0 °F 78% 29.98 in 4.0 mi NNW 10.4 mph - 0.00 in Snow Light Snow
4:51 PM 28.0 °F 20.8 °F 19.9 °F 72% 29.98 in 6.0 mi North 6.9 mph - 0.00 in Snow Light Snow
5:51 PM 27.0 °F 16.1 °F 21.0 °F 78% 29.99 in 3.0 mi NNW 12.7 mph - 0.00 in Snow Light Snow
6:51 PM 26.1 °F 16.2 °F 21.0 °F 81% 30.00 in 5.0 mi NNW 10.4 mph - 0.00 in Snow Light Snow
7:51 PM 26.1 °F 16.2 °F 21.0 °F 81% 30.00 in 3.0 mi NNW 10.4 mph - 0.01 in Snow Light Snow
8:51 PM 26.1 °F 15.0 °F 21.0 °F 81% 30.00 in 3.0 mi NNW 12.7 mph - 0.00 in Snow Light Snow
9:51 PM 26.1 °F 16.8 °F 21.0 °F 81% 30.01 in 4.0 mi North 9.2 mph - 0.00 in Snow Light Snow
10:51 PM 26.1 °F 18.4 °F 21.9 °F 84% 30.00 in 4.0 mi NW 6.9 mph - 0.01 in Snow Light Snow
11:51 PM 25.0 °F 15.5 °F 21.0 °F 85% 30.00 in 3.0 mi NW 9.2 mph - 0.00 in Snow Light Snow